Regional Weather Roundup
Issued by NWS

Home | Current Version | Previous Version | Graphics & Text | Print | Product List | Glossary On
Versions: 1 2 3 4 5 6 7 8 9 10 11 12 13 14 15 16 17 18 19 20 21 22 23 24 25 26 27 28 29 30 31 32 33 34 35 36 37 38 39 40 41 42 43 44 45 46 47 48 49 50
000
ASUS43 KIND 281759
RWRIN

WEATHER ROUNDUP FOR INDIANA
NATIONAL WEATHER SERVICE INDIANAPOLIS IN
200 PM EDT THU JUL 28 2016

NOTE: "FAIR" INDICATES FEW OR NO CLOUDS BELOW 12,000 FEET WITH NO
SIGNIFICANT WEATHER AND/OR OBSTRUCTIONS TO VISIBILITY.

* - STATION DOES NOT REPORT WEATHER SUCH AS PRECIPITATION OR FOG.

+ - STATION NOT QUALITY CONTROLLED BY THE NATIONAL WEATHER SERVICE.
    USE DATA WITH CAUTION...ESPECIALLY DEWPOINT AND RELATIVE
    HUMIDITY OBSERVATIONS.

INZ001>003-010>013-019-020-281900-
NORTHWEST INDIANA

CITY           SKY/WX    TMP DP  RH WIND       PRES   REMARKS
GARY /AIRPORT/ MOSUNNY   84  73  70 NE6       29.88F
KNOX *+        CLOUDY    82  55  39 NE3       29.89F
MONTICELLO +   CLOUDY    81  65  57 CALM      29.89S
6HR MIN TEMP:  69; 6HR MAX TEMP:  82;


$$

LMZ046-743>745-281900-
SOUTHERN LAKE MICHIGAN

STATION/POSITION TIME  TEMP    WIND        PRES    WAVE
                       AIR SEA DIR/SP/G            HT
                 (UTC) (F)     (DEG/KT/KT) (MB)    (FT)
BURNS HARBOR     1700   77      10/  6/  8 1012.9F
MICHIGAN CITY    1700   80     300/  6/  7   N/A
5NW MICH CITY    1700   79 79  330/  4/  4   N/A     1

$$

INZ004-005-014>016-021>024-281900-
NORTH CENTRAL INDIANA

CITY           SKY/WX    TMP DP  RH WIND       PRES   REMARKS
GOSHEN         PTSUNNY   84  63  49 VRB5      29.90F
6HR MIN TEMP:  68; 6HR MAX TEMP:  85;

SOUTH BEND       N/A    N/A N/A N/A MISG      29.90F
6HR MIN TEMP:  71; 6HR MAX TEMP:  84;


$$

INZ006>009-017-018-025>027-281900-
NORTHEAST INDIANA

CITY           SKY/WX    TMP DP  RH WIND       PRES   REMARKS
ANGOLA *+        N/A     82  75  78 N5        29.91F
FORT WAYNE     CLOUDY    85  65  51 E6        29.90S
6HR MIN TEMP:  70; 6HR MAX TEMP:  86;


$$

INZ028-029-035-036-043>045-051>053-281900-
WEST CENTRAL INDIANA

CITY           SKY/WX    TMP DP  RH WIND       PRES   REMARKS
LAFAYETTE      CLOUDY    81  70  69 SW5       29.89S
6HR MIN TEMP:  70; 6HR MAX TEMP:  81;

TERRE HAUTE    CLOUDY    83  74  74 NW8       29.89S
6HR MIN TEMP:  74; 6HR MAX TEMP:  83; 6HR PCP:  0.02;


$$

INZ030>032-037>040-046>048-054>057-064-065-281900-
CENTRAL INDIANA

CITY           SKY/WX    TMP DP  RH WIND       PRES   REMARKS
ANDERSON       MOSUNNY   82  64  54 CALM      29.91F
COLUMBUS       MOSUNNY   81  75  83 CALM      29.89F
INDIANAPOLIS   PTSUNNY   84  70  62 VRB3      29.90S
6HR MIN TEMP:  74; 6HR MAX TEMP:  84;

-EAGLE CREEK   CLOUDY    85  69  58 VRB3      29.88F
6HR MIN TEMP:  75; 6HR MAX TEMP:  85;

KOKOMO *+      PTSUNNY   84  66  54 CALM      29.89F
6HR MIN TEMP:  70; 6HR MAX TEMP:  84;

SHELBYVILLE    CLOUDY    85  69  58 CALM      29.89S
6HR MIN TEMP:  73; 6HR MAX TEMP:  85;


$$

INZ033-034-041-042-049-050-058-059-281900-
EAST CENTRAL INDIANA

CITY           SKY/WX    TMP DP  RH WIND       PRES   REMARKS
MUNCIE         CLOUDY    86  65  49 N6        29.90F
6HR MIN TEMP:  72; 6HR MAX TEMP:  86;


$$

INZ060-061-067>069-081>083-085>088-281900-
SOUTHWEST INDIANA

CITY           SKY/WX    TMP DP  RH WIND       PRES   REMARKS
EVANSVILLE     CLOUDY    79  73  82 S7        29.91R
6HR MIN TEMP:  73; 6HR MAX TEMP:  80;

HUNTINGBURG *+ CLOUDY    79  72  78 SW6       29.91S
6HR MIN TEMP:  73; 6HR MAX TEMP:  79; 6HR PCP:  0.01;


$$

INZ062-063-066-070>080-084-089>092-281900-
SOUTH CENTRAL AND SOUTHEAST INDIANA

CITY           SKY/WX    TMP DP  RH WIND       PRES   REMARKS
BLOOMINGTON    CLOUDY    81  72  74 NW3       29.89F
6HR MIN TEMP:  72; 6HR MAX TEMP:  84;

MADISON *+     CLOUDY    79  70  73 W3        29.92F
SEYMOUR +      CLOUDY    82  73  74 CALM      29.89F

$$





USA.gov is the U.S. government's official web portal to all federal, state and local government web resources and services.